SCP
-0 0 0 0 0 0 0 0 0 0 0 0 0 0 0 0 0 0 0 0 0 0 0 0 0 0 0 0 0 0 0 0 0 0 0 0 0 0 0 0 0 0 0 0
0 0 0 0 0 0 0 0 0 0 0 0 0 0 0 0 0 0 0 0 0 0 0 0 0 0 0 0 0 0 0 0 0 0 0 0 0 0 0 0 0 0 0 0
-0 0 0 0 0 0 0 0 0 0 0 0 0 0 0 0 0 0 0 0 0 0 0 0 0 0 0 0 0 0 0 0 0 0 0 0 0 0 0 0 0 0 0 0
0 -0 0 0 0 0 0 0 0 0 -0 0 0 0 0 0 0 0 0 0 0 0 0 0 0 0 0 0 0 0 0 0 0 0 0 0 0 0 0 0 0 0 0 0
0 0 0 0 0 0 0 0 0 0 0 0 0 0 0 0 0 0 0 0 0 0 0 0 0 0 0 0 0 0 0 0 0 0 0 0 0 0 0 0 0 0 0 0
0 0 0 0 0 0 0 0 0 0 0 0 0 0 0 0 0 0 0 0 0 0 0 0 0 0 0 0 0 0 0 0 0 0 0 0 0 0 0 0 0 0 0 0
0 0 0 0 0 0 0 0 0 0 0 0 0 0 0 0 0 0 0 0 0 0 0 0 0 0 0 0 0 0 0 0 0 0 0 0 0 0 0 0 0 0 0 0
0 0 0 0 0 0 0 0 0 0 0 0 0 0 0 0 0 0 0 0 0 0 0 0 0 0 0 0 0 0 0 0 0 0 0 0 0 0 0 0 0 0 0 0
0 0 0 0 0 0 0 0 0 0 0 0 0 0 0 0 0 0 0 0 0 0 0 0 0 0 0 0 0 0 0 0 0 0 0 -0 -0 0 0 0 0 0 0 -0
0 0 0 0 0 0 0 0 0 0 0 0 0 0 0 0 0 0 0 0 0 0 0 0 0 0 0 0 0 0 0 0 0 -0 -0 -0 0 0 0 0 0 -0 -0 -0
0 0 0 0 0 0 0 0 0 0 0 0 0 0 0 0 0 0 0 0 0 0 0 0 0 0 0 0 0 0 -0 -0 -0 -0 -0 0 0 0 -0 -0 -0 -0 -0 0
0 0 0 0 0 0 0 0 0 0 0 0 0 0 0 0 0 0 0 0 0 0 0 0 0 0 0 0 -0 -0 0 0 -0 -0 -0 0 -0 0 -0 -0 -0 -0 0 0
0 0 0 0 0 0 0 0 0 0 0 0 0 0 0 0 0 0 0 0 0 0 0 0 0 0 -0 -0 -0 -0 -0 0 -0 -0 -0 -0 -0 0 0 0 0 0 0 0
0 0 0 0 0 0 0 0 0 0 0 0 0 0 0 0 0 0 0 0 0 0 0 0 -0 0 0 0 -0 -0 0 -0 0 -0 -0 0 -0 -0 -0 -0 0 0 0 0
0 0 0 0 0 0 0 0 0 0 0 0 0 0 0 0 0 0 0 0 0 0 0 -0 0 0 -0 -0 0 -0 -0 -0 0 0 -0 0 -0 0 -0 0 0 -0 0 0
0 0 0 0 0 0 0 0 0 0 0 0 0 0 0 0 0 0 0 0 0 0 0 0 0 0 0 -0 -0 0 -0 0 0 -0 -0 -0 0 0 0 0 0 0 0 0
0 0 0 0 0 0 0 0 0 0 0 0 0 0 0 0 0 0 0 0 0 0 0 0 0 0 0 -0 -0 -0 -0 0 0 -0 -0 0 0 0 0 0 0 0 0 0
0 0 0 0 0 0 0 0 0 0 0 0 0 0 0 0 0 0 0 0 0 0 0 0 0 0 -0 -0 -0 -0 0 0 0 -0 0 0 0 0 0 0 0 0 0 0
0 0 0 0 0 0 -0 0 0 -0 0 0 0 0 0 0 0 0 0 0 0 0 0 0 -0 -0 -0 -0 -0 -0 0 -0 -0 -0 0 0 0 0 0 0 0 0 0 0
0 0 0 0 0 -0 -0 -0 -0 -0 -0 0 0 0 0 0 0 0 0 0 0 0 0 0 0 0 0 -0 -0 0 0 -0 -0 0 0 0 0 0 0 0 0 0 0 0
0 0 0 0 -0 -0 -0 0 -0 -0 0 0 0 0 0 0 0 0 0 0 0 0 0 0 0 0 0 0 0 0 0 0 0 0 0 0 0 0 0 0 0 0 0 0
0 0 0 0 0 0 -0 -0 -0 0 0 0 0 0 0 0 0 0 0 0 0 0 0 0 0 0 0 0 0 0 0 -0 -0 -0 0 0 0 0 0 0 0 0 0 0
0 0 0 0 0 0 -0 -0 -0 0 0 0 0 0 0 0 0 0 0 0 0 0 0 0 -0 -0 -0 0 -0 -0 -0 -0 -0 0 0 0 0 0 0 0 0 0 0 0
0 0 0 0 0 0 0 0 0 0 0 0 0 0 0 0 0 0 0 0 0 0 0 -0 -0 -0 -0 -0 -0 -0 -0 -0 0 0 0 0 0 0 0 0 0 0 0 0
0 0 0 -0 0 -0 -0 0 0 0 0 0 0 0 0 0 0 0 0 0 0 0 -0 -0 -0 -0 -0 -0 -0 -0 -0 0 0 0 0 0 0 0 0 0 0 0 0 0
-0 0 0 -0 0 -0 -0 -0 0 0 0 0 0 0 0 0 0 0 0 0 0 -0 -0 -0 -0 -0 -0 -0 -0 -0 0 0 0 0 0 0 0 0 0 0 0 0 0 0
-0 -0 -0 -0 -0 -0 -0 -0 -0 -0 0 0 -0 -0 -0 -0 -0 0 0 0 0 0 0 0 0 -0 -0 0 0 0 0 0 0 0 0 0 0 0 0 0 0 0 0 0
Wind_Speed_500mb
16 1 8 7 7 6 8 4 5 11 18 11 12 14 23 44 33 17 27 24 39 51 49 46 43 38 27 15 10 8 5 18 25 21 20 23 24 21 18 19 21 24 26 27
6 8 16 4 11 33 16 5 5 12 5 14 26 28 16 17 23 62 50 48 47 43 37 31 28 24 21 15 16 15 12 13 18 23 28 30 27 27 27 28 32 35 38 42
11 19 19 7 18 17 12 14 18 7 19 24 14 20 13 43 57 57 53 49 42 39 32 26 21 19 17 19 16 11 11 14 20 22 22 25 28 32 38 43 47 50 53 56
11 25 8 7 12 7 19 21 25 27 17 32 29 41 55 48 49 44 40 33 26 23 16 13 13 14 14 15 18 17 16 20 25 27 31 37 43 47 51 54 56 59 61 61
8 5 15 18 14 9 20 30 27 27 29 41 56 61 38 34 30 26 22 17 16 16 13 11 11 14 19 19 19 22 27 27 33 37 43 48 52 54 57 60 60 58 54 54
5 5 5 9 11 22 5 13 15 21 17 15 17 12 6 27 28 20 8 4 4 6 12 17 21 22 16 16 23 28 31 35 41 46 48 49 52 54 49 50 52 58 65 69
6 5 8 4 12 20 11 5 28 43 41 40 15 20 23 15 8 5 7 8 10 14 14 16 10 19 23 25 27 32 37 45 48 50 51 51 52 53 59 65 70 73 69 60
4 6 6 15 18 9 14 33 37 35 35 31 30 24 13 11 9 6 5 7 10 9 10 13 17 22 24 24 26 31 35 38 44 47 52 59 66 72 75 72 62 60 53 51
8 5 14 41 43 44 43 41 33 28 20 20 17 15 12 14 12 14 13 11 10 8 7 11 16 20 26 29 36 41 47 50 52 57 62 68 79 70 57 53 49 46 44 43
9 13 19 40 39 38 32 32 28 22 15 16 19 18 18 14 16 13 11 13 18 21 22 26 31 35 38 45 50 51 52 55 60 67 77 76 56 48 45 43 41 38 36 42
12 22 33 28 31 32 32 23 26 24 24 23 19 18 14 20 15 11 15 21 25 30 37 44 51 55 56 58 62 63 65 69 72 67 54 47 41 37 33 27 26 31 36 39
6 21 29 14 19 26 34 32 29 26 22 20 15 20 18 14 20 21 24 28 34 40 46 44 48 50 54 56 59 64 62 53 42 38 34 33 34 33 22 23 21 21 23 28
21 34 39 38 26 30 34 29 25 22 17 14 16 15 15 19 22 25 26 33 39 42 40 44 47 51 56 56 48 38 33 29 26 27 28 29 30 31 36 22 16 14 22 34
29 35 29 30 37 32 27 23 15 14 16 18 23 28 27 26 30 31 35 37 39 40 43 47 46 40 33 28 24 21 20 20 22 23 21 22 25 26 25 26 28 27 26 34
30 28 28 47 38 32 22 18 20 25 31 32 29 29 27 31 32 28 29 33 37 38 32 26 24 21 18 16 15 15 16 19 24 20 19 20 21 21 19 20 22 26 32 35
23 29 44 44 34 29 27 30 30 25 22 21 24 21 23 24 23 27 28 29 24 14 14 16 14 14 12 12 12 15 15 19 24 23 20 20 20 22 23 25 27 30 33 37
42 42 42 43 32 28 28 25 19 16 15 17 17 18 22 22 13 19 17 10 6 8 12 10 11 11 13 15 17 14 15 16 15 20 24 28 30 32 35 38 41 37 34 32
46 37 34 24 19 19 23 21 15 17 16 15 15 16 17 8 6 9 8 6 6 8 10 11 13 16 22 24 25 33 35 36 37 40 39 39 41 40 40 44 49 49 44 38
28 32 31 22 15 21 29 22 17 16 12 12 7 12 8 6 6 9 12 14 16 20 20 19 20 25 34 40 43 44 43 47 48 50 50 49 49 50 51 50 51 57 57 53
32 29 28 25 17 28 31 26 16 17 15 11 10 15 17 17 17 22 26 29 31 34 34 35 39 41 39 40 44 50 51 50 52 52 50 54 56 60 61 60 60 61 63 62
33 27 24 24 23 28 35 32 19 22 20 19 22 29 26 27 36 44 47 47 41 47 55 58 56 54 53 54 44 42 46 47 49 47 45 49 50 49 52 56 60 61 63 66
27 23 23 23 25 25 30 33 24 22 25 25 26 28 34 40 44 44 45 46 47 47 44 43 42 43 43 45 44 42 43 42 44 47 48 48 49 51 52 53 56 57 60 63
26 19 19 24 30 25 25 28 32 28 24 25 30 29 32 34 33 40 43 39 36 34 37 39 40 43 40 37 34 37 35 33 36 35 38 41 44 47 50 52 54 56 57 59
24 17 16 18 26 21 23 29 30 31 35 29 25 26 31 33 31 28 28 27 28 27 28 26 24 27 25 28 26 24 29 28 26 26 28 36 43 43 44 48 52 55 57 59
20 18 17 16 18 18 19 18 20 27 27 30 31 32 32 31 33 29 27 22 19 20 22 18 15 18 20 21 26 28 28 29 28 32 34 39 42 45 46 47 50 52 54 58
26 21 18 14 14 12 17 19 19 16 21 25 26 26 27 28 29 31 33 34 34 28 24 24 28 32 37 31 25 28 33 36 36 37 36 36 38 40 43 45 47 50 53 54
21 23 25 23 21 15 11 13 10 22 22 20 28 25 26 27 29 31 31 32 34 34 34 34 32 30 29 31 29 27 28 30 30 30 31 30 31 34 36 39 41 43 46 49
Wind_Direction_500mb
178 149 301 75 86 14 318 20 133 164 165 159 139 114 115 103 99 129 74 316 101 98 96 97 100 95 101 114 110 105 62 6 356 338 327 325 323 318 310 306 297 293 292 283
93 190 231 219 218 171 229 138 83 329 207 178 170 135 213 173 147 87 84 92 89 85 83 83 78 79 69 50 18 9 12 15 351 347 351 349 342 325 309 301 299 298 296 294
152 155 199 278 215 191 183 163 103 257 278 192 163 162 150 91 86 88 87 85 84 83 80 67 44 20 11 358 336 345 352 349 338 329 315 303 299 298 300 302 301 299 299 299
107 168 182 135 67 169 184 164 153 163 186 159 139 101 84 83 89 88 85 84 79 83 78 73 55 16 360 341 336 335 329 327 320 305 295 291 292 295 295 297 300 301 301 301
106 158 134 38 20 35 97 33 75 96 89 100 101 88 69 81 85 83 84 87 84 88 62 20 3 338 317 315 325 312 309 312 306 302 299 298 299 302 304 301 299 299 301 303
58 79 95 184 30 8 74 68 17 82 89 97 137 104 150 111 101 92 69 41 335 316 295 306 317 305 300 309 308 311 304 299 297 298 300 301 300 298 298 297 297 297 297 298
39 91 71 89 36 341 75 160 69 66 73 75 80 126 125 131 117 190 212 240 254 284 315 310 292 291 299 304 311 314 306 301 297 291 292 293 295 294 295 297 298 299 301 302
18 85 122 338 30 65 129 94 85 68 57 82 94 123 109 102 100 78 79 58 24 9 2 349 331 316 311 311 301 294 297 293 291 291 294 298 301 301 299 300 303 305 305 305
138 165 98 88 107 124 112 111 102 90 69 60 54 52 45 30 26 26 10 341 324 323 329 350 345 333 315 305 293 288 286 287 288 292 297 301 307 305 306 306 307 310 312 311
83 39 93 109 113 112 115 105 102 97 71 54 38 19 11 6 359 351 339 322 304 301 308 307 310 311 304 297 290 290 290 289 291 295 300 304 303 306 307 310 312 310 316 315
91 119 82 92 115 114 104 89 83 74 60 44 30 14 2 12 359 323 302 298 305 308 306 304 300 294 289 288 290 295 296 297 298 300 300 302 307 313 313 312 312 316 321 322
102 120 112 82 72 97 91 80 67 54 43 40 37 38 16 345 345 323 312 304 301 301 300 296 288 285 288 293 297 299 299 302 306 308 311 316 319 323 324 323 324 324 330 320
114 114 121 120 98 95 83 78 73 59 48 24 7 354 332 309 296 296 300 297 297 297 291 286 290 296 299 299 302 305 311 316 318 326 328 332 337 337 334 350 350 348 331 322
117 122 91 116 93 96 96 84 84 42 10 342 316 303 296 289 284 297 304 296 296 296 297 297 300 302 306 312 317 325 328 337 340 342 348 345 341 335 336 341 348 348 338 331
102 107 112 104 93 78 64 34 4 342 326 320 315 312 312 309 309 305 293 298 301 301 301 308 315 323 327 334 345 357 13 16 355 342 335 330 325 335 343 345 341 340 347 348
115 115 99 83 73 55 28 5 352 341 338 329 315 314 308 311 303 300 302 303 309 324 328 333 343 349 0 6 38 53 29 19 24 24 27 27 24 22 17 12 8 4 0 355
87 73 81 74 69 42 26 5 355 343 324 323 319 314 307 310 304 298 313 333 14 347 351 9 24 27 37 60 83 64 38 21 21 38 43 44 45 43 40 34 27 20 13 6
94 92 86 83 65 50 24 13 13 346 345 332 324 314 320 357 352 349 18 59 63 41 53 65 59 74 83 86 81 74 69 74 74 70 66 63 59 54 48 44 37 30 26 21
97 93 84 77 49 43 30 28 16 9 6 353 1 355 29 71 55 58 81 88 86 79 76 78 80 93 97 98 86 78 77 78 75 71 68 65 61 56 52 48 47 41 35 31
108 100 90 87 62 43 35 31 42 40 41 50 44 62 85 89 88 90 90 85 83 83 82 86 94 97 98 97 90 85 77 73 73 69 66 65 60 55 51 49 47 46 43 39
120 113 98 80 64 47 34 35 61 58 58 67 80 78 86 98 102 99 93 90 94 99 98 95 94 94 89 81 74 73 68 63 57 59 59 59 56 53 51 49 45 42 43 41
135 126 109 87 70 60 41 40 61 80 72 83 91 92 91 104 98 93 93 95 99 97 95 92 86 85 83 75 63 58 62 56 58 58 58 58 55 53 50 47 45 43 42 42
142 136 126 96 68 61 68 45 54 73 87 86 81 95 104 105 106 104 97 98 98 96 100 95 91 93 94 96 98 93 80 74 68 59 51 53 54 52 50 46 44 43 41 40
145 141 127 107 85 69 83 65 53 57 69 84 97 96 98 96 92 100 109 111 107 103 100 102 108 109 107 107 101 96 83 69 61 52 52 55 55 52 50 48 46 44 41 38
135 126 114 102 88 86 85 92 70 66 66 69 74 81 84 86 87 88 92 103 124 125 115 112 113 110 101 104 96 87 73 62 60 65 64 62 59 56 51 48 45 41 40 37
135 145 158 112 92 85 69 91 89 92 74 78 83 85 87 87 89 91 93 93 97 107 114 110 98 93 92 98 100 92 81 68 60 62 63 60 58 52 48 44 42 40 38 36
155 135 129 131 126 133 118 100 94 82 84 78 80 84 88 88 88 87 86 87 88 88 89 91 92 83 79 81 82 79 72 77 75 65 59 53 46 44 41 40 39 37 36 33
Wind_Speed_850mb
16 1 8 7 7 6 8 4 5 11 18 11 12 14 23 44 33 17 27 24 39 51 49 46 43 38 27 15 10 8 5 18 25 21 20 23 24 21 18 19 21 24 26 27
6 8 16 4 11 33 16 5 5 12 5 14 26 28 16 17 23 62 50 48 47 43 37 31 28 24 21 15 16 15 12 13 18 23 28 30 27 27 27 28 32 35 38 42
11 19 19 7 18 17 12 14 18 7 19 24 14 20 13 43 57 57 53 49 42 39 32 26 21 19 17 19 16 11 11 14 20 22 22 25 28 32 38 43 47 50 53 56
11 25 8 7 12 7 19 21 25 27 17 32 29 41 55 48 49 44 40 33 26 23 16 13 13 14 14 15 18 17 16 20 25 27 31 37 43 47 51 54 56 59 61 61
8 5 15 18 14 9 20 30 27 27 29 41 56 61 38 34 30 26 22 17 16 16 13 11 11 14 19 19 19 22 27 27 33 37 43 48 52 54 57 60 60 58 54 54
5 5 5 9 11 22 5 13 15 21 17 15 17 12 6 27 28 20 8 4 4 6 12 17 21 22 16 16 23 28 31 35 41 46 48 49 52 54 49 50 52 58 65 69
6 5 8 4 12 20 11 5 28 43 41 40 15 20 23 15 8 5 7 8 10 14 14 16 10 19 23 25 27 32 37 45 48 50 51 51 52 53 59 65 70 73 69 60
4 6 6 15 18 9 14 33 37 35 35 31 30 24 13 11 9 6 5 7 10 9 10 13 17 22 24 24 26 31 35 38 44 47 52 59 66 72 75 72 62 60 53 51
8 5 14 41 43 44 43 41 33 28 20 20 17 15 12 14 12 14 13 11 10 8 7 11 16 20 26 29 36 41 47 50 52 57 62 68 79 70 57 53 49 46 44 43
9 13 19 40 39 38 32 32 28 22 15 16 19 18 18 14 16 13 11 13 18 21 22 26 31 35 38 45 50 51 52 55 60 67 77 76 56 48 45 43 41 38 36 42
12 22 33 28 31 32 32 23 26 24 24 23 19 18 14 20 15 11 15 21 25 30 37 44 51 55 56 58 62 63 65 69 72 67 54 47 41 37 33 27 26 31 36 39
6 21 29 14 19 26 34 32 29 26 22 20 15 20 18 14 20 21 24 28 34 40 46 44 48 50 54 56 59 64 62 53 42 38 34 33 34 33 22 23 21 21 23 28
21 34 39 38 26 30 34 29 25 22 17 14 16 15 15 19 22 25 26 33 39 42 40 44 47 51 56 56 48 38 33 29 26 27 28 29 30 31 36 22 16 14 22 34
29 35 29 30 37 32 27 23 15 14 16 18 23 28 27 26 30 31 35 37 39 40 43 47 46 40 33 28 24 21 20 20 22 23 21 22 25 26 25 26 28 27 26 34
30 28 28 47 38 32 22 18 20 25 31 32 29 29 27 31 32 28 29 33 37 38 32 26 24 21 18 16 15 15 16 19 24 20 19 20 21 21 19 20 22 26 32 35
23 29 44 44 34 29 27 30 30 25 22 21 24 21 23 24 23 27 28 29 24 14 14 16 14 14 12 12 12 15 15 19 24 23 20 20 20 22 23 25 27 30 33 37
42 42 42 43 32 28 28 25 19 16 15 17 17 18 22 22 13 19 17 10 6 8 12 10 11 11 13 15 17 14 15 16 15 20 24 28 30 32 35 38 41 37 34 32
46 37 34 24 19 19 23 21 15 17 16 15 15 16 17 8 6 9 8 6 6 8 10 11 13 16 22 24 25 33 35 36 37 40 39 39 41 40 40 44 49 49 44 38
28 32 31 22 15 21 29 22 17 16 12 12 7 12 8 6 6 9 12 14 16 20 20 19 20 25 34 40 43 44 43 47 48 50 50 49 49 50 51 50 51 57 57 53
32 29 28 25 17 28 31 26 16 17 15 11 10 15 17 17 17 22 26 29 31 34 34 35 39 41 39 40 44 50 51 50 52 52 50 54 56 60 61 60 60 61 63 62
33 27 24 24 23 28 35 32 19 22 20 19 22 29 26 27 36 44 47 47 41 47 55 58 56 54 53 54 44 42 46 47 49 47 45 49 50 49 52 56 60 61 63 66
27 23 23 23 25 25 30 33 24 22 25 25 26 28 34 40 44 44 45 46 47 47 44 43 42 43 43 45 44 42 43 42 44 47 48 48 49 51 52 53 56 57 60 63
26 19 19 24 30 25 25 28 32 28 24 25 30 29 32 34 33 40 43 39 36 34 37 39 40 43 40 37 34 37 35 33 36 35 38 41 44 47 50 52 54 56 57 59
24 17 16 18 26 21 23 29 30 31 35 29 25 26 31 33 31 28 28 27 28 27 28 26 24 27 25 28 26 24 29 28 26 26 28 36 43 43 44 48 52 55 57 59
20 18 17 16 18 18 19 18 20 27 27 30 31 32 32 31 33 29 27 22 19 20 22 18 15 18 20 21 26 28 28 29 28 32 34 39 42 45 46 47 50 52 54 58
26 21 18 14 14 12 17 19 19 16 21 25 26 26 27 28 29 31 33 34 34 28 24 24 28 32 37 31 25 28 33 36 36 37 36 36 38 40 43 45 47 50 53 54
21 23 25 23 21 15 11 13 10 22 22 20 28 25 26 27 29 31 31 32 34 34 34 34 32 30 29 31 29 27 28 30 30 30 31 30 31 34 36 39 41 43 46 49
Wind_Direction_850mb
178 149 301 75 86 14 318 20 133 164 165 159 139 114 115 103 99 129 74 316 101 98 96 97 100 95 101 114 110 105 62 6 356 338 327 325 323 318 310 306 297 293 292 283
93 190 231 219 218 171 229 138 83 329 207 178 170 135 213 173 147 87 84 92 89 85 83 83 78 79 69 50 18 9 12 15 351 347 351 349 342 325 309 301 299 298 296 294
152 155 199 278 215 191 183 163 103 257 278 192 163 162 150 91 86 88 87 85 84 83 80 67 44 20 11 358 336 345 352 349 338 329 315 303 299 298 300 302 301 299 299 299
107 168 182 135 67 169 184 164 153 163 186 159 139 101 84 83 89 88 85 84 79 83 78 73 55 16 360 341 336 335 329 327 320 305 295 291 292 295 295 297 300 301 301 301
106 158 134 38 20 35 97 33 75 96 89 100 101 88 69 81 85 83 84 87 84 88 62 20 3 338 317 315 325 312 309 312 306 302 299 298 299 302 304 301 299 299 301 303
58 79 95 184 30 8 74 68 17 82 89 97 137 104 150 111 101 92 69 41 335 316 295 306 317 305 300 309 308 311 304 299 297 298 300 301 300 298 298 297 297 297 297 298
39 91 71 89 36 341 75 160 69 66 73 75 80 126 125 131 117 190 212 240 254 284 315 310 292 291 299 304 311 314 306 301 297 291 292 293 295 294 295 297 298 299 301 302
18 85 122 338 30 65 129 94 85 68 57 82 94 123 109 102 100 78 79 58 24 9 2 349 331 316 311 311 301 294 297 293 291 291 294 298 301 301 299 300 303 305 305 305
138 165 98 88 107 124 112 111 102 90 69 60 54 52 45 30 26 26 10 341 324 323 329 350 345 333 315 305 293 288 286 287 288 292 297 301 307 305 306 306 307 310 312 311
83 39 93 109 113 112 115 105 102 97 71 54 38 19 11 6 359 351 339 322 304 301 308 307 310 311 304 297 290 290 290 289 291 295 300 304 303 306 307 310 312 310 316 315
91 119 82 92 115 114 104 89 83 74 60 44 30 14 2 12 359 323 302 298 305 308 306 304 300 294 289 288 290 295 296 297 298 300 300 302 307 313 313 312 312 316 321 322
102 120 112 82 72 97 91 80 67 54 43 40 37 38 16 345 345 323 312 304 301 301 300 296 288 285 288 293 297 299 299 302 306 308 311 316 319 323 324 323 324 324 330 320
114 114 121 120 98 95 83 78 73 59 48 24 7 354 332 309 296 296 300 297 297 297 291 286 290 296 299 299 302 305 311 316 318 326 328 332 337 337 334 350 350 348 331 322
117 122 91 116 93 96 96 84 84 42 10 342 316 303 296 289 284 297 304 296 296 296 297 297 300 302 306 312 317 325 328 337 340 342 348 345 341 335 336 341 348 348 338 331
102 107 112 104 93 78 64 34 4 342 326 320 315 312 312 309 309 305 293 298 301 301 301 308 315 323 327 334 345 357 13 16 355 342 335 330 325 335 343 345 341 340 347 348
115 115 99 83 73 55 28 5 352 341 338 329 315 314 308 311 303 300 302 303 309 324 328 333 343 349 0 6 38 53 29 19 24 24 27 27 24 22 17 12 8 4 0 355
87 73 81 74 69 42 26 5 355 343 324 323 319 314 307 310 304 298 313 333 14 347 351 9 24 27 37 60 83 64 38 21 21 38 43 44 45 43 40 34 27 20 13 6
94 92 86 83 65 50 24 13 13 346 345 332 324 314 320 357 352 349 18 59 63 41 53 65 59 74 83 86 81 74 69 74 74 70 66 63 59 54 48 44 37 30 26 21
97 93 84 77 49 43 30 28 16 9 6 353 1 355 29 71 55 58 81 88 86 79 76 78 80 93 97 98 86 78 77 78 75 71 68 65 61 56 52 48 47 41 35 31
108 100 90 87 62 43 35 31 42 40 41 50 44 62 85 89 88 90 90 85 83 83 82 86 94 97 98 97 90 85 77 73 73 69 66 65 60 55 51 49 47 46 43 39
120 113 98 80 64 47 34 35 61 58 58 67 80 78 86 98 102 99 93 90 94 99 98 95 94 94 89 81 74 73 68 63 57 59 59 59 56 53 51 49 45 42 43 41
135 126 109 87 70 60 41 40 61 80 72 83 91 92 91 104 98 93 93 95 99 97 95 92 86 85 83 75 63 58 62 56 58 58 58 58 55 53 50 47 45 43 42 42
142 136 126 96 68 61 68 45 54 73 87 86 81 95 104 105 106 104 97 98 98 96 100 95 91 93 94 96 98 93 80 74 68 59 51 53 54 52 50 46 44 43 41 40
145 141 127 107 85 69 83 65 53 57 69 84 97 96 98 96 92 100 109 111 107 103 100 102 108 109 107 107 101 96 83 69 61 52 52 55 55 52 50 48 46 44 41 38
135 126 114 102 88 86 85 92 70 66 66 69 74 81 84 86 87 88 92 103 124 125 115 112 113 110 101 104 96 87 73 62 60 65 64 62 59 56 51 48 45 41 40 37
135 145 158 112 92 85 69 91 89 92 74 78 83 85 87 87 89 91 93 93 97 107 114 110 98 93 92 98 100 92 81 68 60 62 63 60 58 52 48 44 42 40 38 36
155 135 129 131 126 133 118 100 94 82 84 78 80 84 88 88 88 87 86 87 88 88 89 91 92 83 79 81 82 79 72 77 75 65 59 53 46 44 41 40 39 37 36 33